Flag for Russia Weather past 2 weeks in Syktyvkar, Russia

Now
50 °F

Cloudy.


Feels Like: 47 °F
Forecast: 36 / 54 °F
Wind: 8 mph from North

Location: Syktyvkar Airport

Current Time: Aug 31, 2014 at 11:23:14 AM

Latest Report: Aug 31, 2014 at 11:00 AM


Visibility: N/A

Pressure: 29.92 "Hg

Humidity: 88%

Dew point: 46 °F

Location of SyktyvkarLocation

Historic Weather in Syktyvkar — Graph

°F

Syktyvkar temperature yesterday

Maximum temperature yesterday: 57 °F (at 4:00 PM)
Minimum temperature yesterday: 54 °F (at 1:00 AM)
Average temperature yesterday: 55 °F

Past Weeks' High & Low Weather Summary

 TemperatureHumidityPressure
High77 °F (Aug 21, 3:00 PM)100% (Aug 17, 1:00 AM)30.18 "Hg (Aug 17, 1:00 AM)
Low39 °F (Aug 25, 3:30 AM)41% (Aug 19, 3:00 PM)29.42 "Hg (Aug 16, 10:00 AM)
Average57 °F82%29.81 "Hg
* Reported Aug 16 10:00 AM — Aug 31 10:00 AM, Syktyvkar, Weather by CustomWeather, © 2014

Note: Actual official high and low records may vary slightly from our data, if they occured in-between our weather recording intervals... More about our weather records

Advertising

Syktyvkar weather history for previous 24 hours

 ConditionsComfort  
Time TempWeatherWind HumidityBarometerVisibility
10:00 AM
Aug 31
52 °FCloudy.3 mph88%29.89 "HgN/A
9:00 AM52 °FCloudy.3 mph94%29.86 "HgN/A
8:30 AM50 °FSprinkles. Cloudy.6 mph94%29.86 "Hg6 mi
8:00 AM50 °FSprinkles. Cloudy.6 mph94%29.86 "Hg6 mi
7:30 AM52 °FSprinkles. More clouds than sun.8 mph88%29.83 "HgN/A
7:00 AM52 °FMore clouds than sun.6 mph88%29.83 "HgN/A
6:30 AM50 °FOvercast.6 mph94%29.80 "HgN/A
6:00 AM50 °FOvercast.3 mph94%29.80 "HgN/A
5:30 AM50 °FMostly cloudy.6 mph94%29.80 "HgN/A
5:00 AM50 °FPartly cloudy.6 mph94%29.77 "HgN/A
4:30 AM52 °FPartly cloudy.6 mph88%29.77 "HgN/A
4:00 AM52 °FPartly cloudy.6 mph88%29.77 "HgN/A
3:30 AM52 °FPartly cloudy.6 mph88%29.74 "HgN/A
3:00 AM52 °FPartly cloudy.3 mph94%29.74 "HgN/A
2:30 AM54 °FPartly cloudy.3 mph88%29.74 "HgN/A
2:00 AM52 °FPartly cloudy.3 mph94%29.71 "HgN/A
1:30 AM52 °FPartly cloudy.1 mph94%29.71 "HgN/A
1:00 AM54 °FMostly cloudy.No wind88%29.71 "HgN/A
12:30 AM54 °FMostly cloudy.1 mph94%29.68 "Hg5 mi
12:00 AM54 °FMostly cloudy.1 mph94%29.68 "HgN/A
11:30 PM
Aug 30
54 °FSprinkles. Mostly cloudy.3 mph94%29.68 "HgN/A
11:00 PM55 °FSprinkles. Mostly cloudy.1 mph88%29.68 "Hg6 mi
10:30 PM55 °FMostly cloudy.1 mph88%29.68 "HgN/A
10:00 PM55 °FMostly cloudy.1 mph88%29.68 "HgN/A
9:00 PM55 °FSprinkles. Mostly cloudy.6 mph94%29.65 "HgN/A
8:30 PM57 °FSprinkles. More clouds than sun.6 mph88%29.65 "HgN/A
8:00 PM57 °FSprinkles. Mostly cloudy.6 mph88%29.65 "HgN/A
7:30 PM57 °FSprinkles. Mostly cloudy.3 mph88%29.65 "HgN/A
7:00 PM57 °FSprinkles. Mostly cloudy.3 mph88%29.65 "HgN/A
6:30 PM57 °FMostly cloudy.3 mph88%29.65 "HgN/A
6:00 PM57 °FSprinkles. Mostly cloudy.3 mph88%29.62 "HgN/A
5:30 PM57 °FMostly cloudy.3 mph88%29.62 "HgN/A
5:00 PM57 °FMostly cloudy.6 mph88%29.62 "Hg6 mi
4:00 PM57 °FMostly cloudy.3 mph88%29.62 "Hg6 mi
3:30 PM55 °FMostly cloudy.3 mph94%29.59 "Hg6 mi
3:00 PM55 °FSprinkles. Cloudy.3 mph94%29.59 "HgN/A
2:30 PM55 °FSprinkles. Cloudy.3 mph94%29.59 "Hg6 mi
2:00 PM55 °FSprinkles. Cloudy.3 mph88%29.59 "Hg5 mi
1:30 PM54 °FSprinkles. Cloudy.3 mph94%29.56 "Hg4 mi
1:00 PM54 °FSprinkles. Cloudy.6 mph94%29.56 "Hg3 mi
12:30 PM54 °FSprinkles. Cloudy.6 mph94%29.56 "Hg4 mi
12:00 PM54 °FSprinkles. Cloudy.6 mph94%29.53 "Hg4 mi
11:30 AM54 °FSprinkles. Cloudy.6 mph94%29.53 "Hg5 mi
11:00 AM54 °FSprinkles. Cloudy.6 mph94%29.50 "Hg4 mi
Weather by CustomWeather, © 2014

See weather overviewHow to use our weather pages